This demonstration page uses our WeatherBlox Daily Observations layout. Learn more.

Left ArrowRight Arrow

36.19886, -115.1175

Hourly Observations for February 11, 2021

Temp ( °F °C ) Dew Point ( °F °C ) Humidity (%) Winds ( mph kmh ) Pressure ( in mb ) Visibility ( mi km ) Precip ( " mm )
12:53 am 00:53 Clear 51 10.6 29 -1.7 43 43 NW 5 7 29.98 1015 10 16 N/A
1:53 am 01:53 Clear 52 11.1 28 -2.2 40 40 NW 8 13 29.98 1015 10 16 N/A
2:53 am 02:53 Clear 54 12.2 29 -1.7 38 38 NNW 10 17 29.97 1015 10 16 N/A
3:53 am 03:53 Clear 52 11.1 28 -2.2 40 40 WNW 7 11 29.98 1015 10 16 N/A
4:53 am 04:53 Clear 52 11.1 29 -1.7 41 41 NW 5 7 29.99 1016 10 16 N/A
5:53 am 05:53 Clear 49 9.4 29 -1.7 46 46 WNW 8 13 30.00 1016 10 16 N/A
6:53 am 06:53 Sunny 50 10 29 -1.7 44 44 W 8 13 30.02 1017 10 16 N/A
7:53 am 07:53 Sunny 53 11.7 30 -1.1 41 41 N N/A 30.04 1017 10 16 N/A
8:53 am 08:53 Sunny 57 13.9 30 -1.1 36 36 E 3 6 30.04 1017 10 16 N/A
9:53 am 09:53 Sunny 62 16.7 29 -1.7 29 29 E 3 6 30.04 1017 10 16 N/A
10:53 am 10:53 Sunny 65 18.3 29 -1.7 26 26 N N/A 30.03 1017 10 16 N/A
11:53 am 11:53 Sunny 66 18.9 28 -2.2 24 24 N N/A 29.99 1016 10 16 N/A
12:53 pm 12:53 Sunny 68 20 28 -2.2 22 22 E 5 7 29.94 1014 10 16 N/A
1:53 pm 13:53 Sunny 69 20.6 28 -2.2 22 22 N N/A 29.90 1012 10 16 N/A
2:53 pm 14:53 Sunny 70 21.1 28 -2.2 21 21 SE 5 7 29.87 1011 10 16 N/A
3:53 pm 15:53 Sunny 70 21.1 28 -2.2 21 21 N N/A 29.87 1012 10 16 N/A
4:53 pm 16:53 Sunny 68 20 28 -2.2 22 22 ENE 8 13 29.84 1011 10 16 N/A
5:53 pm 17:53 Clear 66 18.9 28 -2.2 24 24 E 3 6 29.82 1010 10 16 N/A
6:53 pm 18:53 Clear 65 18.3 28 -2.2 25 25 NW 5 7 29.83 1010 10 16 N/A
7:53 pm 19:53 Clear 64 17.8 29 -1.7 27 27 N N/A 29.81 1010 10 16 N/A
8:53 pm 20:53 Mostly Clear 67 19.4 26 -3.3 21 21 SW 10 17 29.79 1009 10 16 N/A
9:53 pm 21:53 Clear 67 19.4 28 -2.2 23 23 SSW 9 15 29.78 1009 10 16 N/A
10:53 pm 22:53 Clear 66 18.9 29 -1.7 25 25 S 16 26 29.73 1007 10 16 N/A
11:53 pm 23:53 Mostly Clear 65 18.3 28 -2.2 25 25 SSW 14 22 29.72 1007 10 16 N/A

Powered by AerisWeather